Date,TemperatureHighF,TemperatureAvgF,TemperatureLowF,DewpointHighF,DewpointAvgF,DewpointLowF,HumidityHigh,HumidityAvg,HumidityLow,PressureMaxIn,PressureMinIn,WindSpeedMaxMPH,WindSpeedAvgMPH,GustSpeedMaxMPH,PrecipitationSumIn
2013-12-8,9.6,3.9,-8.0,6.5,-0.4,-12.6,87,82,75,29.81,29.38,5,2,9,0.00
2013-12-9,13.0,7.3,-1.8,10.1,3.4,-6.2,88,84,77,29.37,29.14,6,3,13,0.00
2013-12-10,12.5,3.7,-6.2,10.1,-0.3,-10.8,90,83,79,29.41,29.14,9,4,13,0.00
2013-12-11,11.0,3.2,-3.6,8.1,-0.5,-8.2,89,84,80,29.70,29.42,8,5,13,0.00
2013-12-12,17.5,6.4,-6.1,14.3,2.7,-10.9,89,85,78,29.63,29.43,10,4,15,0.00
2013-12-13,15.3,8.5,1.9,11.6,4.0,-3.4,87,82,75,29.74,29.46,9,3,13,0.00
2013-12-14,17.6,10.0,2.0,12.6,5.5,-3.0,89,82,74,29.74,29.22,5,1,7,0.00
2013-12-15,16.9,12.7,5.2,14.7,9.7,1.8,91,88,83,29.43,29.19,11,6,18,0.00
2013-12-16,11.6,6.8,0.1,7.8,3.0,-3.6,87,84,78,29.43,29.16,5,2,9,0.00
2013-12-17,27.1,18.5,9.4,24.0,14.8,6.1,92,85,76,29.32,29.07,11,5,15,0.00
2013-12-18,21.7,12.8,5.0,13.0,7.2,0.5,89,78,60,29.33,29.00,7,2,12,0.00
2013-12-19,27.4,19.8,13.2,23.2,15.8,9.7,95,84,80,29.50,29.05,15,4,15,0.00
2013-12-20,23.4,14.3,5.7,15.1,10.4,2.8,90,84,69,29.46,29.22,3,0,4,0.00
2013-12-21,27.7,19.7,13.3,22.9,16.0,10.5,93,86,75,29.36,29.20,5,1,6,0.01
2013-12-22,26.1,23.8,19.3,24.3,21.5,17.2,94,91,87,29.49,29.29,6,2,14,0.00
2013-12-23,19.1,15.4,10.8,16.9,13.0,8.2,91,90,89,29.75,29.49,4,0,6,0.00
2013-12-24,19.6,13.9,7.8,13.2,9.0,5.2,92,81,66,29.74,29.48,9,2,12,0.00
2013-12-25,20.2,15.7,11.3,18.2,12.2,6.9,92,86,79,29.48,29.31,7,2,15,0.00
2013-12-26,18.1,14.3,11.8,13.8,9.1,7.2,86,79,76,29.52,29.34,7,3,13,0.00
2013-12-27,36.2,22.7,5.8,30.9,18.1,2.5,90,83,74,29.51,29.08,6,2,12,0.02
2013-12-28,34.1,30.4,20.3,31.2,27.9,18.1,95,91,84,29.31,29.10,11,2,17,0.05
2013-12-29,20.2,9.4,5.5,18.0,6.0,0.8,91,86,80,29.51,29.31,17,9,24,0.00
2013-12-30,5.5,-0.6,-6.4,2.0,-5.7,-11.0,86,79,69,29.57,29.44,6,3,11,0.00
2013-12-31,5.7,2.8,-2.2,2.7,-0.9,-6.1,87,84,80,29.71,29.40,9,5,13,0.00